sat.trackr.live / text

‹ back to catalog

STARLINK-32470

NORAD 62115 · 2024-222B

PAYLOAD ACTIVE UNKNOWN

§ Identity

Operator
Country
US
Launch date
2024-11-27
Launch site
AFETR
Launch vehicle
Mass (kg)
RCS (m²)

Purposes: comms

External: N2YO · Heavens-Above · Gunter

§ Orbital elements

Epoch: 2026-05-25T03:26:33.395712Z

Period
94.27 min
Inclination
43.0004°
Eccentricity
0.0001183
Mean motion
15.27597827 rev/d
Perigee alt
482.2 km
Apogee alt
483.8 km
Semi-major
6,861.1 km
B*
4.4056e-4
RAAN
64.2410°
Arg perigee
266.7677°
Mean anomaly
93.3039°
Rev number
8,459

§ Raw data

STARLINK-324701 62115U 24222B   26145.14344208  .00011887  00000+0  44056-3 0  99972 62115  43.0004  64.2410 0001183 266.7677  93.3039 15.27597827 84595

JSON: /api/v1/satellites/62115 · /tle

For live sub-satellite position, see the globe view (requires WebGL).

§ Visibility from observer

Set your observer location to see the next 7 days of passes ≥ 10°. The values pass through the URL so the page stays shareable.

No JS? Fill the form by hand. The geolocation button needs JavaScript.